La Grande, OR

9:00 AM PDT on August 31, 2016 (GMT -0700)
La Grande-Union County

Weather History for KLGD - October, 2011

Change the Weather History Date:

Tuesday, October 18, 2011

  Actual Average Record
Temperature  
Mean Temperature 47 °F -  
Max Temperature 66 °F 58 °F 82 °F (2003)
Min Temperature 28 °F 32 °F 23 °F (1999)
Degree Days  
Heating Degree Days 18    
Moisture  
Dew Point 30 °F    
Average Humidity 61    
Maximum Humidity 81    
Minimum Humidity 30    
Precipitation  
Precipitation 0.00 in - - ()
Sea Level Pressure  
Sea Level Pressure 30.31 in    
Wind  
Wind Speed 5 mph (South)    
Max Wind Speed 21 mph    
Max Gust Speed 28 mph    
Visibility 10 miles    
Events      
Averages and records for this station are not official NWS values.
T = Trace of Precipitation, MM = Missing Value Source: NWS Daily Summary

Daily Weather History Graph

Daily Weather History Graph

Search for Another Location

Airport or City:

Trip Planner

Search our weather history database for the weather conditions in past years. The results will help you decide how hot, cold, wet, or windy it might be!

Date:

Astronomy

Oct. 18, 2011 Rise Set
Actual Time 7:11 AM PDT 6:01 PM PDT
Civil Twilight 6:41 AM PDT 6:31 PM PDT
Nautical Twilight 6:07 AM PDT 7:05 PM PDT
Astronomical Twilight 5:33 AM PDT 7:40 PM PDT
Moon 10:38 PM PDT (10/18) 1:16 PM PDT (10/18)
Length of Visible Light 11h 49m
Length of Day
10h 50m
Waning Gibbous, 64% of the Moon is Illuminated
Oct 18
Waning Gibbous
Oct 19
Last Quarter
Oct 26
New
Nov 2
First Quarter
Nov 10
Full

Hourly Weather History & Observations

Time (PDT) Temp. Windchill Dew Point Humidity Pressure Visibility Wind Dir Wind Speed Gust Speed Precip Events Conditions
12:15 AM 35.6 °F 32.8 °F 28.4 °F 75% 30.39 in 10.0 mi WNW 3.5 mph - N/A   Clear
12:35 AM 35.6 °F - 28.4 °F 75% 30.39 in 10.0 mi Calm Calm - N/A   Clear
12:55 AM 35.6 °F 30.7 °F 28.4 °F 75% 30.39 in 10.0 mi NNW 5.8 mph - N/A   Clear
1:15 AM 33.8 °F 29.6 °F 26.6 °F 75% 30.39 in 10.0 mi SW 4.6 mph - N/A   Clear
1:35 AM 35.6 °F 32.8 °F 26.6 °F 70% 30.39 in 10.0 mi NW 3.5 mph - N/A   Clear
1:55 AM 33.8 °F - 28.4 °F 81% 30.40 in - Calm Calm - N/A   Clear
2:15 AM 35.6 °F 32.8 °F 28.4 °F 75% 30.40 in - North 3.5 mph - N/A   Clear
2:35 AM 33.8 °F - 26.6 °F 75% 30.40 in - Calm Calm - N/A   Clear
2:55 AM 33.8 °F 30.8 °F 26.6 °F 75% 30.40 in 10.0 mi West 3.5 mph - N/A   Clear
3:15 AM 33.8 °F - 26.6 °F 75% 30.39 in 10.0 mi Calm Calm - N/A   Clear
3:35 AM 33.8 °F 30.8 °F 26.6 °F 75% 30.39 in - West 3.5 mph - N/A   Clear
3:55 AM 33.8 °F 30.8 °F 26.6 °F 75% 30.39 in - West 3.5 mph - N/A   Clear
4:15 AM 33.8 °F - 26.6 °F 75% 30.39 in 10.0 mi Calm Calm - N/A   Clear
4:35 AM 33.8 °F - 28.4 °F 81% 30.38 in - Calm Calm - N/A   Clear
4:55 AM 30.2 °F - 23.0 °F 75% 30.39 in 10.0 mi Calm Calm - N/A   Clear
5:15 AM 30.2 °F - 24.8 °F 80% 30.39 in - Calm Calm - N/A   Clear
5:35 AM 30.2 °F - 24.8 °F 80% 30.39 in 7.0 mi Calm Calm - N/A   Clear
5:55 AM 30.2 °F - 24.8 °F 80% 30.38 in 8.0 mi Calm Calm - N/A   Clear
6:15 AM 30.2 °F - 24.8 °F 80% 30.38 in 10.0 mi Calm Calm - N/A   Clear
6:35 AM 30.2 °F 26.7 °F 23.0 °F 75% 30.38 in 10.0 mi NNW 3.5 mph - N/A   Clear
7:15 AM 28.4 °F - 23.0 °F 80% 30.39 in - Calm Calm - N/A   Scattered Clouds
7:35 AM 28.4 °F - 23.0 °F 80% 30.39 in - Calm Calm - N/A   Scattered Clouds
7:55 AM 30.2 °F - 24.8 °F 80% 30.39 in - Calm Calm - N/A   Clear
8:15 AM 33.8 °F - 26.6 °F 75% 30.39 in 9.0 mi Calm Calm - N/A   Clear
8:35 AM 33.8 °F - 26.6 °F 75% 30.39 in 9.0 mi Calm Calm - N/A   Clear
8:55 AM 35.6 °F - 28.4 °F 75% 30.39 in 10.0 mi Calm Calm - N/A   Clear
9:15 AM 37.4 °F - 30.2 °F 75% 30.38 in 10.0 mi Calm Calm - N/A   Clear
9:55 AM 39.2 °F 37.0 °F 30.2 °F 70% 30.38 in 10.0 mi North 3.5 mph - N/A   Clear
10:15 AM 39.2 °F - 32.0 °F 75% 30.37 in 10.0 mi Calm Calm - N/A   Clear
10:35 AM 42.8 °F - 32.0 °F 66% 30.37 in 10.0 mi Calm Calm - N/A   Clear
10:55 AM 44.6 °F 43.1 °F 33.8 °F 66% 30.35 in 10.0 mi North 3.5 mph - N/A   Clear
11:15 AM 44.6 °F 43.1 °F 35.6 °F 71% 30.34 in 10.0 mi North 3.5 mph - N/A   Clear
11:35 AM 46.4 °F 45.2 °F 33.8 °F 62% 30.33 in 10.0 mi NNE 3.5 mph - N/A   Clear
11:55 AM 48.2 °F - 35.6 °F 62% 30.33 in 10.0 mi NE 3.5 mph - N/A   Clear
12:15 PM 51.8 °F - 37.4 °F 58% 30.32 in 10.0 mi ENE 3.5 mph - N/A   Clear
12:35 PM 53.6 °F - 35.6 °F 51% 30.30 in 10.0 mi ENE 3.5 mph - N/A   Clear
12:55 PM 55.4 °F - 37.4 °F 51% 30.29 in 10.0 mi SW 4.6 mph - N/A   Clear
1:15 PM 60.8 °F - 37.4 °F 42% 30.27 in 10.0 mi South 17.3 mph 23.0 mph N/A   Clear
1:35 PM 62.6 °F - 37.4 °F 39% 30.26 in 10.0 mi South 17.3 mph 24.2 mph N/A   Clear
1:55 PM 62.6 °F - 37.4 °F 39% 30.25 in 10.0 mi South 16.1 mph 19.6 mph N/A   Clear
2:15 PM 64.4 °F - 37.4 °F 37% 30.24 in 10.0 mi South 17.3 mph - N/A   Clear
2:35 PM 64.4 °F - 37.4 °F 37% 30.22 in 10.0 mi South 15.0 mph 19.6 mph N/A   Clear
2:55 PM 66.2 °F - 33.8 °F 30% 30.21 in 10.0 mi South 15.0 mph - N/A   Clear
3:15 PM 66.2 °F - 33.8 °F 30% 30.20 in 10.0 mi SSE 19.6 mph - N/A   Clear
3:35 PM 64.4 °F - 33.8 °F 32% 30.19 in 10.0 mi SSE 16.1 mph 23.0 mph N/A   Clear
3:55 PM - - - N/A% 30.18 in 10.0 mi South 20.7 mph 25.3 mph N/A   Clear
4:15 PM - - - N/A% 30.17 in 10.0 mi SSE 15.0 mph - N/A   Clear
4:35 PM 64.4 °F - 33.8 °F 32% 30.16 in 10.0 mi SSE 15.0 mph 23.0 mph N/A   Clear
4:55 PM - - - N/A% 30.14 in 10.0 mi SSE 16.1 mph 20.7 mph N/A   Clear
5:15 PM 62.6 °F - 32.0 °F 32% 30.14 in 10.0 mi South 12.7 mph 19.6 mph N/A   Clear
5:35 PM 60.8 °F - 33.8 °F 36% 30.13 in 10.0 mi South 17.3 mph - N/A   Clear
5:55 PM 60.8 °F - 32.0 °F 34% 30.13 in 10.0 mi South 17.3 mph 24.2 mph N/A   Clear
6:15 PM 59.0 °F - 32.0 °F 36% 30.13 in 10.0 mi South 19.6 mph 23.0 mph N/A   Clear
6:35 PM 59.0 °F - 32.0 °F 36% 30.12 in 10.0 mi South 20.7 mph 27.6 mph N/A   Clear
6:55 PM 59.0 °F - 32.0 °F 36% 30.13 in 10.0 mi South 19.6 mph 26.5 mph N/A   Clear
7:15 PM 59.0 °F - 32.0 °F 36% 30.13 in 10.0 mi South 18.4 mph 24.2 mph N/A   Clear
7:35 PM 57.2 °F - 32.0 °F 38% 30.13 in 10.0 mi South 17.3 mph 26.5 mph N/A   Clear
7:55 PM 57.2 °F - 32.0 °F 38% 30.12 in 10.0 mi SSE 15.0 mph 23.0 mph N/A   Clear
8:15 PM 57.2 °F - 32.0 °F 38% 30.12 in 10.0 mi SSE 17.3 mph 24.2 mph N/A   Clear
8:35 PM 57.2 °F - 32.0 °F 38% 30.11 in 10.0 mi South 16.1 mph 25.3 mph N/A   Clear
8:55 PM 57.2 °F - 32.0 °F 38% 30.11 in 10.0 mi SSE 13.8 mph 24.2 mph N/A   Clear
9:15 PM 55.4 °F - 32.0 °F 41% 30.11 in 10.0 mi SSE 13.8 mph 20.7 mph N/A   Clear
9:35 PM 55.4 °F - 32.0 °F 41% 30.10 in 10.0 mi South 18.4 mph 23.0 mph N/A   Clear
9:55 PM 55.4 °F - 33.8 °F 44% 30.10 in 10.0 mi South 17.3 mph 24.2 mph N/A   Clear
10:15 PM 57.2 °F - 33.8 °F 41% 30.09 in 10.0 mi South 19.6 mph 25.3 mph N/A   Clear
10:35 PM - - - N/A% 30.08 in 10.0 mi South 18.4 mph - N/A   Clear
10:55 PM 57.2 °F - 32.0 °F 38% 30.07 in 10.0 mi South 19.6 mph 26.5 mph N/A   Clear
11:15 PM 57.2 °F - 32.0 °F 38% 30.07 in 10.0 mi South 17.3 mph 24.2 mph N/A   Clear
11:35 PM - - - N/A% 30.06 in 10.0 mi South 15.0 mph 24.2 mph N/A   Clear